Location: Asheville, NC
(35.6000°N, 82.5500°W)
Time: 08:51:20
(UTC-05:00)

Vanguard 1 - Pass Details

Date: 14 February 2018
Orbit: 650 x 3833 km, 34.2° (Epoch: 19 February)

Event Time Altitude Azimuth Distance (km) Brightness Sun altitude
Rises 16:33:51 0° 239° (WSW) 5,564 15.7 17.4°
Reaches altitude 10° 16:38:21 10° 235° (SW) 4,036 15.8 16.6°
Maximum altitude 16:47:25 50° 164° (SSE) 1,385 11.2 15.0°
Drops below altitude 10° 16:52:47 10° 89° (E) 2,424 11.6 14.0°
Sets 16:54:52 0° 83° (E) 3,191 12.1 13.6°
